| time (UTC) | temp F | wind direction | speed MPH | gust MPH | rain 1hr in | rain 24hr in | rain mn in | humidity % | barometer mb |
| 20260507113023 | 69 | 304 | 2.0 | 7.0 | 0.00 | 0.01 | 0.00 | 56 | 1014.3 |
| 20260507112022 | 68 | 18 | 2.0 | 5.0 | 0.00 | 0.01 | 0.00 | 57 | 1014.0 |
| 20260507110922 | 68 | 10 | 2.0 | 9.0 | 0.00 | 0.01 | 0.00 | 56 | 1014.3 |
| 20260507105922 | 68 | 347 | 2.0 | 4.0 | 0.00 | 0.01 | 0.00 | 58 | 1014.5 |
| 20260507104922 | 68 | 1 | 2.0 | 6.0 | 0.00 | 0.01 | 0.00 | 57 | 1014.5 |
| 20260507103922 | 67 | 15 | 2.0 | 6.0 | 0.00 | 0.01 | 0.00 | 58 | 1014.6 |
| 20260507102922 | 67 | 3 | 2.0 | 6.0 | 0.00 | 0.01 | 0.00 | 59 | 1014.6 |
| 20260507101923 | 67 | 16 | 2.0 | 8.0 | 0.00 | 0.01 | 0.00 | 60 | 1014.7 |
| 20260507100922 | 66 | 7 | 2.0 | 6.0 | 0.00 | 0.01 | 0.00 | 61 | 1015.0 |
| 20260507095922 | 66 | 346 | 2.0 | 6.0 | 0.00 | 0.01 | 0.00 | 60 | 1014.9 |
| 20260507094922 | 65 | 296 | 2.0 | 4.0 | 0.00 | 0.01 | 0.00 | 59 | 1014.8 |
| 20260507093922 | 65 | 332 | 2.0 | 6.0 | 0.00 | 0.01 | 0.00 | 56 | 1014.9 |
| 20260507092823 | 64 | 303 | 3.0 | 6.0 | 0.00 | 0.01 | 0.00 | 58 | 1014.8 |
| 20260507091823 | 64 | 350 | 2.0 | 6.0 | 0.00 | 0.01 | 0.00 | 62 | 1014.8 |
| 20260507090822 | 64 | 28 | 2.0 | 6.0 | 0.00 | 0.01 | 0.00 | 62 | 1015.0 |
| 20260507085822 | 63 | 330 | 3.0 | 6.0 | 0.00 | 0.01 | 0.00 | 64 | 1015.2 |
| 20260507084822 | 63 | 2 | 2.0 | 5.0 | 0.00 | 0.01 | 0.00 | 66 | 1015.2 |
| 20260507083822 | 62 | 14 | 2.0 | 5.0 | 0.00 | 0.01 | 0.00 | 66 | 1015.3 |
| 20260507082822 | 62 | 323 | 2.0 | 4.0 | 0.00 | 0.01 | 0.00 | 68 | 1015.6 |
| 20260507081822 | 61 | 1 | 2.0 | 5.0 | 0.00 | 0.01 | 0.00 | 69 | 1015.4 |
| 20260507080823 | 61 | 341 | 2.0 | 4.0 | 0.00 | 0.01 | 0.00 | 70 | 1015.3 |
| 20260507075822 | 60 | 15 | 2.0 | 6.0 | 0.00 | 0.01 | 0.00 | 72 | 1015.7 |
| 20260507074823 | 60 | 358 | 2.0 | 6.0 | 0.00 | 0.01 | 0.00 | 72 | 1015.6 |
| 20260507073722 | 60 | 11 | 2.0 | 5.0 | 0.00 | 0.01 | 0.00 | 74 | 1015.6 |
| 20260507072722 | 60 | 20 | 2.0 | 5.0 | 0.00 | 0.01 | 0.00 | 74 | 1015.7 |
| 20260507071722 | 59 | 356 | 2.0 | 4.0 | 0.00 | 0.01 | 0.00 | 74 | 1015.4 |
| 20260507070722 | 59 | 1 | 2.0 | 4.0 | 0.00 | 0.01 | 0.00 | 76 | 1015.6 |
| 20260507065722 | 59 | 332 | 2.0 | 6.0 | 0.00 | 0.01 | 0.00 | 76 | 1015.6 |
| 20260507064722 | 58 | 323 | 2.0 | 4.0 | 0.00 | 0.01 | 0.00 | 76 | 1015.7 |
| 20260507063722 | 58 | 315 | 1.0 | 4.0 | 0.00 | 0.01 | 0.00 | 77 | 1015.6 |
| 20260507062722 | 58 | 290 | 2.0 | 4.0 | 0.00 | 0.01 | 0.00 | 77 | 1015.7 |
| 20260507061722 | 58 | 286 | 2.0 | 4.0 | 0.00 | 0.01 | 0.00 | 76 | 1015.3 |
| 20260507060722 | 58 | 282 | 2.0 | 4.0 | 0.00 | 0.01 | 0.00 | 77 | 1015.4 |
| 20260507055722 | 58 | 270 | 2.0 | 4.0 | 0.00 | 0.01 | 0.00 | 77 | 1015.2 |
| 20260507054622 | 58 | 270 | 2.0 | 4.0 | 0.00 | 0.01 | 0.00 | 77 | 1015.3 |
| 20260507053921 | 58 | 261 | 2.0 | 5.0 | 0.00 | 0.01 | 0.00 | 77 | 1015.3 |
| 20260507052621 | 57 | 270 | 2.0 | 4.0 | 0.00 | 0.01 | 0.00 | 77 | 1015.2 |
| 20260507051623 | 57 | 270 | 2.0 | 4.0 | 0.00 | 0.01 | 0.00 | 77 | 1015.1 |
| 20260507050621 | 57 | 270 | 2.0 | 4.0 | 0.00 | 0.01 | 0.00 | 76 | 1015.1 |
| 20260507045622 | 57 | 284 | 3.0 | 6.0 | 0.00 | 0.01 | 0.00 | 76 | 1015.0 |
| 20260507044622 | 57 | 278 | 3.0 | 5.0 | 0.00 | 0.01 | 0.00 | 76 | 1014.9 |
| 20260507043621 | 57 | 278 | 2.0 | 6.0 | 0.00 | 0.01 | 0.00 | 76 | 1014.7 |
| 20260507042621 | 57 | 279 | 3.0 | 6.0 | 0.00 | 0.01 | 0.00 | 76 | 1014.8 |
| 20260507041622 | 57 | 270 | 2.0 | 4.0 | 0.00 | 0.01 | 0.00 | 76 | 1014.8 |
| 20260507040621 | 57 | 270 | 2.0 | 5.0 | 0.00 | 0.01 | 0.00 | 76 | 1014.7 |
| 20260507035522 | 58 | 260 | 2.0 | 4.0 | 0.01 | 0.01 | 0.00 | 76 | 1014.6 |
| 20260507034522 | 58 | 270 | 2.0 | 4.0 | 0.01 | 0.01 | 0.00 | 75 | 1014.6 |
| 20260507033522 | 58 | 270 | 2.0 | 4.0 | 0.01 | 0.01 | 0.00 | 76 | 1014.7 |
| 20260507032522 | 58 | 270 | 2.0 | 4.0 | 0.01 | 0.01 | 0.00 | 75 | 1014.8 |
| 20260507031522 | 58 | 270 | 2.0 | 5.0 | 0.01 | 0.01 | 0.00 | 74 | 1014.6 |
| 20260507030522 | 58 | 280 | 3.0 | 6.0 | 0.01 | 0.01 | 0.00 | 74 | 1014.6 |
| 20260507025521 | 58 | 286 | 2.0 | 5.0 | 0.00 | 0.00 | 0.00 | 73 | 1014.7 |
| 20260507024522 | 58 | 270 | 2.0 | 4.0 | 0.00 | 0.00 | 0.00 | 73 | 1014.4 |
| 20260507023522 | 58 | 289 | 2.0 | 4.0 | 0.00 | 0.00 | 0.00 | 73 | 1014.3 |
| 20260507022522 | 58 | 270 | 2.0 | 4.0 | 0.00 | 0.00 | 0.00 | 74 | 1014.3 |
| 20260507021521 | 58 | 270 | 2.0 | 4.0 | 0.00 | 0.00 | 0.00 | 74 | 1014.2 |
| 20260507020522 | 58 | 270 | 2.0 | 5.0 | 0.00 | 0.00 | 0.00 | 74 | 1014.2 |
| 20260507015421 | 58 | 281 | 2.0 | 4.0 | 0.00 | 0.00 | 0.00 | 74 | 1014.0 |
| 20260507014421 | 58 | 293 | 3.0 | 6.0 | 0.00 | 0.00 | 0.00 | 74 | 1013.9 |
| 20260507013422 | 58 | 298 | 4.0 | 7.0 | 0.00 | 0.00 | 0.00 | 74 | 1014.0 |
| 20260507012421 | 58 | 299 | 4.0 | 6.0 | 0.00 | 0.00 | 0.00 | 74 | 1013.9 |
| 20260507011422 | 58 | 291 | 3.0 | 6.0 | 0.00 | 0.00 | 0.00 | 74 | 1013.9 |
| 20260507010421 | 58 | 291 | 3.0 | 6.0 | 0.00 | 0.00 | 0.00 | 74 | 1013.8 |
| 20260507005422 | 58 | 288 | 2.0 | 4.0 | 0.00 | 0.00 | 0.00 | 73 | 1013.9 |
| 20260507004421 | 58 | 285 | 3.0 | 5.0 | 0.00 | 0.00 | 0.00 | 73 | 1013.7 |
| 20260507003422 | 59 | 270 | 2.0 | 4.0 | 0.00 | 0.00 | 0.00 | 73 | 1013.8 |
| 20260507002421 | 58 | 291 | 2.0 | 5.0 | 0.00 | 0.00 | 0.00 | 73 | 1013.9 |
| 20260507001422 | 59 | 298 | 4.0 | 6.0 | 0.00 | 0.00 | 0.00 | 73 | 1013.9 |
| 20260507000421 | 59 | 296 | 4.0 | 6.0 | 0.00 | 0.00 | 0.00 | 72 | 1014.0 |
| 20260506235422 | 59 | 303 | 4.0 | 7.0 | 0.00 | 0.00 | 0.00 | 71 | 1013.9 |
| 20260506234321 | 59 | 291 | 3.0 | 5.0 | 0.00 | 0.00 | 0.00 | 71 | 1014.0 |
| 20260506233322 | 59 | 270 | 2.0 | 4.0 | 0.00 | 0.00 | 0.00 | 71 | 1014.4 |
| 20260506232322 | 60 | 280 | 2.0 | 4.0 | 0.00 | 0.00 | 0.00 | 71 | 1014.5 |
| 20260506231322 | 60 | 270 | 2.0 | 4.0 | 0.00 | 0.00 | 0.00 | 71 | 1014.5 |
| 20260506230321 | 60 | 270 | 2.0 | 5.0 | 0.00 | 0.00 | 0.00 | 70 | 1014.7 |
| 20260506225322 | 60 | 284 | 2.0 | 4.0 | 0.00 | 0.00 | 0.00 | 70 | 1014.7 |
| 20260506224321 | 60 | 270 | 2.0 | 4.0 | 0.00 | 0.00 | 0.00 | 71 | 1014.7 |
| 20260506223322 | 60 | 280 | 2.0 | 4.0 | 0.00 | 0.00 | 0.00 | 70 | 1014.8 |
| 20260506222322 | 60 | 278 | 2.0 | 5.0 | 0.00 | 0.00 | 0.00 | 69 | 1014.8 |
| 20260506221321 | 60 | 285 | 3.0 | 5.0 | 0.00 | 0.00 | 0.00 | 69 | 1014.8 |
| 20260506220222 | 60 | 289 | 3.0 | 5.0 | 0.00 | 0.00 | 0.00 | 68 | 1014.8 |
| 20260506215222 | 60 | 290 | 3.0 | 5.0 | 0.00 | 0.04 | 0.00 | 68 | 1014.9 |
| 20260506214221 | 60 | 288 | 2.0 | 5.0 | 0.00 | 0.04 | 0.00 | 68 | 1014.9 |
| 20260506213223 | 60 | 270 | 2.0 | 4.0 | 0.00 | 0.04 | 0.00 | 68 | 1014.9 |
| 20260506212222 | 60 | 270 | 2.0 | 4.0 | 0.00 | 0.04 | 0.00 | 68 | 1014.9 |
| 20260506211222 | 60 | 286 | 2.0 | 4.0 | 0.00 | 0.04 | 0.00 | 68 | 1014.8 |
| 20260506210221 | 61 | 279 | 2.0 | 4.0 | 0.00 | 0.04 | 0.00 | 68 | 1014.6 |
| 20260506205322 | 61 | 279 | 2.0 | 4.0 | 0.00 | 0.04 | 0.00 | 66 | 1014.9 |
| 20260506204222 | 61 | 280 | 2.0 | 4.0 | 0.00 | 0.04 | 0.00 | 66 | 1014.8 |
| 20260506203222 | 61 | 296 | 3.0 | 6.0 | 0.00 | 0.04 | 0.00 | 66 | 1014.9 |
| 20260506202222 | 61 | 299 | 4.0 | 8.0 | 0.00 | 0.04 | 0.00 | 66 | 1015.0 |
| 20260506201122 | 61 | 305 | 4.0 | 7.0 | 0.00 | 0.04 | 0.00 | 66 | 1014.9 |
| 20260506200122 | 61 | 304 | 4.0 | 8.0 | 0.00 | 0.04 | 0.00 | 66 | 1014.9 |
| 20260506195122 | 61 | 297 | 3.0 | 6.0 | 0.00 | 0.04 | 0.00 | 67 | 1015.0 |
| 20260506194122 | 61 | 298 | 4.0 | 8.0 | 0.00 | 0.04 | 0.00 | 67 | 1014.7 |
| 20260506193122 | 61 | 302 | 3.0 | 6.0 | 0.00 | 0.04 | 0.00 | 67 | 1014.6 |
| 20260506192122 | 61 | 303 | 4.0 | 8.0 | 0.00 | 0.04 | 0.00 | 67 | 1014.5 |
| 20260506191121 | 61 | 302 | 4.0 | 8.0 | 0.00 | 0.04 | 0.00 | 67 | 1014.4 |
| 20260506190122 | 62 | 305 | 6.0 | 9.0 | 0.00 | 0.04 | 0.00 | 66 | 1014.4 |
| 20260506185122 | 62 | 303 | 4.0 | 7.0 | 0.00 | 0.04 | 0.00 | 66 | 1014.4 |
| 20260506184122 | 62 | 306 | 4.0 | 10.0 | 0.00 | 0.04 | 0.00 | 66 | 1014.4 |
| 20260506183123 | 62 | 297 | 4.0 | 7.0 | 0.00 | 0.04 | 0.00 | 66 | 1014.2 |
| 20260506182022 | 62 | 296 | 4.0 | 6.0 | 0.00 | 0.04 | 0.00 | 65 | 1014.2 |
| 20260506181022 | 63 | 303 | 4.0 | 7.0 | 0.00 | 0.04 | 0.00 | 65 | 1013.9 |
| 20260506180023 | 63 | 304 | 4.0 | 7.0 | 0.00 | 0.04 | 0.00 | 64 | 1013.8 |
| 20260506175021 | 63 | 303 | 4.0 | 8.0 | 0.00 | 0.04 | 0.00 | 64 | 1013.7 |
| 20260506174022 | 63 | 300 | 4.0 | 7.0 | 0.00 | 0.04 | 0.00 | 64 | 1013.7 |
| 20260506173022 | 63 | 306 | 4.0 | 8.0 | 0.00 | 0.04 | 0.00 | 64 | 1013.6 |
| 20260506172021 | 63 | 297 | 4.0 | 8.0 | 0.00 | 0.04 | 0.00 | 63 | 1013.6 |
| 20260506171022 | 63 | 308 | 6.0 | 11.0 | 0.00 | 0.04 | 0.00 | 63 | 1013.5 |
| 20260506170021 | 64 | 310 | 6.0 | 11.0 | 0.00 | 0.04 | 0.00 | 63 | 1013.6 |
| 20260506165022 | 64 | 310 | 6.0 | 14.0 | 0.00 | 0.04 | 0.00 | 62 | 1013.5 |
| 20260506164021 | 64 | 304 | 2.0 | 6.0 | 0.00 | 0.04 | 0.00 | 63 | 1013.3 |
| 20260506162921 | 64 | 318 | 3.0 | 7.0 | 0.00 | 0.04 | 0.00 | 63 | 1013.5 |
| 20260506161922 | 64 | 313 | 4.0 | 9.0 | 0.00 | 0.04 | 0.00 | 62 | 1013.5 |
| 20260506160921 | 64 | 313 | 6.0 | 12.0 | 0.00 | 0.04 | 0.00 | 62 | 1013.6 |
| 20260506155922 | 65 | 309 | 8.0 | 17.0 | 0.00 | 0.04 | 0.00 | 61 | 1013.4 |
| 20260506154922 | 65 | 307 | 7.0 | 12.0 | 0.00 | 0.04 | 0.00 | 60 | 1013.5 |
| 20260506153922 | 65 | 303 | 8.0 | 14.0 | 0.00 | 0.04 | 0.00 | 60 | 1013.7 |
| 20260506152921 | 66 | 304 | 8.0 | 16.0 | 0.00 | 0.04 | 0.00 | 60 | 1013.5 |
| 20260506151922 | 66 | 308 | 7.0 | 14.0 | 0.00 | 0.04 | 0.00 | 60 | 1013.6 |
| 20260506150922 | 66 | 301 | 6.0 | 12.0 | 0.00 | 0.04 | 0.00 | 60 | 1013.2 |
| 20260506145922 | 67 | 297 | 7.0 | 20.0 | 0.00 | 0.04 | 0.00 | 60 | 1013.2 |
| 20260506145021 | 67 | 301 | 6.0 | 12.0 | 0.00 | 0.04 | 0.00 | 60 | 1013.4 |
| 20260506144021 | 67 | 303 | 6.0 | 12.0 | 0.00 | 0.04 | 0.00 | 59 | 1013.4 |
| 20260506143021 | 67 | 300 | 7.0 | 13.0 | 0.00 | 0.04 | 0.00 | 58 | 1013.3 |
| 20260506141721 | 67 | 298 | 7.0 | 13.0 | 0.00 | 0.04 | 0.00 | 58 | 1013.3 |
| 20260506140721 | 68 | 299 | 6.0 | 16.0 | 0.00 | 0.04 | 0.00 | 58 | 1013.3 |
| 20260506135722 | 67 | 290 | 8.0 | 18.0 | 0.00 | 0.04 | 0.00 | 58 | 1013.3 |
| 20260506134721 | 67 | 296 | 7.0 | 14.0 | 0.00 | 0.04 | 0.00 | 57 | 1013.3 |
| 20260506133721 | 67 | 305 | 6.0 | 13.0 | 0.00 | 0.04 | 0.00 | 58 | 1013.5 |
| 20260506132721 | 68 | 297 | 6.0 | 14.0 | 0.00 | 0.04 | 0.00 | 58 | 1013.7 |
| 20260506131821 | 68 | 293 | 7.0 | 16.0 | 0.00 | 0.04 | 0.00 | 57 | 1013.7 |
| 20260506130722 | 68 | 280 | 7.0 | 16.0 | 0.00 | 0.04 | 0.00 | 58 | 1013.8 |
| 20260506125722 | 67 | 301 | 6.0 | 12.0 | 0.00 | 0.04 | 0.00 | 60 | 1013.9 |
| 20260506124622 | 67 | 283 | 6.0 | 12.0 | 0.00 | 0.04 | 0.00 | 59 | 1014.2 |
| 20260506123622 | 67 | 304 | 6.0 | 14.0 | 0.00 | 0.04 | 0.00 | 59 | 1013.9 |
| 20260506122622 | 67 | 294 | 6.0 | 11.0 | 0.00 | 0.04 | 0.00 | 59 | 1014.0 |
| 20260506121621 | 67 | 299 | 4.0 | 9.0 | 0.00 | 0.04 | 0.00 | 59 | 1014.0 |
| 20260506120621 | 67 | 286 | 5.0 | 10.0 | 0.00 | 0.04 | 0.00 | 57 | 1013.9 |
| 20260506115621 | 66 | 280 | 4.0 | 8.0 | 0.00 | 0.04 | 0.00 | 58 | 1013.9 |
| 20260506114622 | 66 | 306 | 4.0 | 7.0 | 0.00 | 0.04 | 0.00 | 60 | 1014.3 |
| 20260506113622 | 66 | 45 | 2.0 | 6.0 | 0.00 | 0.04 | 0.00 | 61 | 1014.4 |